TimeCDT,TemperatureF,Dew PointF,Humidity,Sea Level PressureIn,VisibilityMPH,Wind Direction,Wind SpeedMPH,Gust SpeedMPH,PrecipitationIn,Events,Conditions,WindDirDegrees,DateUTC
12:03 AM,14.0,12.2,93,30.08,0.2,West,6.9,-,N/A,Fog,Light Freezing Fog,270,2013-03-30 05:03:00
12:04 AM,14.0,12.2,93,30.08,0.2,West,6.9,-,N/A,Fog,Light Freezing Fog,270,2013-03-30 05:04:00
12:07 AM,14.0,12.2,93,30.09,0.2,West,8.1,-,N/A,Fog,Light Freezing Fog,270,2013-03-30 05:07:00
12:08 AM,14.0,10.4,86,30.09,0.2,West,8.1,-,N/A,Fog,Light Freezing Fog,270,2013-03-30 05:08:00
12:11 AM,14.0,10.4,86,30.09,0.5,West,8.1,-,N/A,Fog,Light Freezing Fog,270,2013-03-30 05:11:00
12:13 AM,14.0,10.4,86,30.09,0.8,West,9.2,-,N/A,,Clear,270,2013-03-30 05:13:00
12:15 AM,14.0,10.4,86,30.09,1.2,West,8.1,-,N/A,,Clear,270,2013-03-30 05:15:00
12:16 AM,14.0,10.4,86,30.09,1.8,West,9.2,-,N/A,,Clear,270,2013-03-30 05:16:00
12:17 AM,14.0,10.4,86,30.09,2.0,West,9.2,-,N/A,,Clear,270,2013-03-30 05:17:00
12:19 AM,14.0,10.4,86,30.08,3.0,West,8.1,-,N/A,,Clear,270,2013-03-30 05:19:00
12:43 AM,14.0,10.4,86,30.08,2.5,WSW,3.5,-,N/A,,Clear,250,2013-03-30 05:43:00
12:48 AM,12.2,10.4,92,30.08,3.0,West,5.8,-,N/A,,Clear,270,2013-03-30 05:48:00
12:55 AM,14.2,12.0,91,30.08,4.0,West,6.9,-,0.00,,Clear,270,2013-03-30 05:55:00
1:05 AM,15.8,14.0,93,30.08,2.5,West,8.1,-,N/A,,Clear,270,2013-03-30 06:05:00
1:11 AM,15.8,14.0,93,30.08,3.0,West,6.9,-,N/A,,Clear,270,2013-03-30 06:11:00
1:40 AM,15.8,14.0,93,30.07,2.5,WNW,4.6,-,N/A,,Clear,300,2013-03-30 06:40:00
1:43 AM,15.8,12.2,86,30.07,2.5,WNW,4.6,-,N/A,,Clear,300,2013-03-30 06:43:00
1:59 AM,15.8,14.0,93,30.07,2.0,WNW,6.9,-,N/A,,Clear,300,2013-03-30 06:59:00
2:03 AM,15.8,12.2,86,30.08,3.0,NW,8.1,-,N/A,,Clear,310,2013-03-30 07:03:00
2:22 AM,15.8,14.0,93,30.07,5.0,NW,8.1,-,N/A,,Clear,320,2013-03-30 07:22:00
2:25 AM,17.6,15.8,93,30.07,3.0,WNW,9.2,-,N/A,,Clear,290,2013-03-30 07:25:00
2:42 AM,17.6,15.8,93,30.07,4.0,WNW,4.6,-,N/A,,Clear,290,2013-03-30 07:42:00
2:55 AM,20.3,18.9,94,30.07,5.0,NW,8.1,-,N/A,,Clear,310,2013-03-30 07:55:00
3:36 AM,24.8,23.0,93,30.06,7.0,NW,12.7,-,N/A,,Partly Cloudy,310,2013-03-30 08:36:00
3:45 AM,24.8,23.0,93,30.06,6.0,WNW,10.4,-,N/A,,Mostly Cloudy,300,2013-03-30 08:45:00
3:47 AM,24.8,23.0,93,30.06,5.0,WNW,9.2,-,N/A,,Mostly Cloudy,290,2013-03-30 08:47:00
3:50 AM,24.8,23.0,93,30.06,5.0,WNW,10.4,-,N/A,,Mostly Cloudy,300,2013-03-30 08:50:00
3:55 AM,24.8,24.1,97,30.06,2.5,WNW,9.2,-,N/A,,Mostly Cloudy,300,2013-03-30 08:55:00
3:58 AM,24.8,24.8,100,30.06,1.8,WNW,9.2,-,N/A,,Mostly Cloudy,300,2013-03-30 08:58:00
4:00 AM,24.8,24.8,100,30.06,1.2,WNW,9.2,-,N/A,,Light Freezing Drizzle,300,2013-03-30 09:00:00
4:01 AM,24.8,24.8,100,30.06,1.2,WNW,10.4,-,N/A,,Light Freezing Drizzle,300,2013-03-30 09:01:00
4:02 AM,24.8,24.8,100,30.06,1.2,WNW,10.4,-,N/A,,Overcast,300,2013-03-30 09:02:00
4:18 AM,24.8,24.8,100,30.06,0.8,WNW,10.4,-,N/A,,Mist,300,2013-03-30 09:18:00
4:35 AM,24.8,24.8,100,30.06,0.8,NW,11.5,-,N/A,,Light Freezing Drizzle,310,2013-03-30 09:35:00
4:36 AM,24.8,24.8,100,30.06,0.8,NW,11.5,-,N/A,,Light Freezing Drizzle,320,2013-03-30 09:36:00
4:49 AM,24.8,24.8,100,30.06,1.5,NW,9.2,-,N/A,,Overcast,320,2013-03-30 09:49:00
4:51 AM,24.8,24.8,100,30.06,2.0,NW,9.2,-,N/A,,Light Freezing Drizzle,320,2013-03-30 09:51:00
4:54 AM,24.8,24.8,100,30.06,3.0,NW,8.1,-,N/A,,Mostly Cloudy,320,2013-03-30 09:54:00
4:55 AM,24.8,23.9,96,30.06,3.0,NW,8.1,-,0.00,,Mostly Cloudy,320,2013-03-30 09:55:00
5:01 AM,24.8,23.0,93,30.07,5.0,NW,8.1,-,N/A,,Scattered Clouds,310,2013-03-30 10:01:00
5:02 AM,23.0,23.0,100,30.07,5.0,NW,8.1,-,N/A,,Scattered Clouds,310,2013-03-30 10:02:00
6:55 AM,19.8,18.0,93,30.08,10.0,WNW,9.2,-,N/A,,Clear,300,2013-03-30 11:55:00
7:55 AM,19.8,18.3,94,30.09,10.0,WNW,10.4,-,N/A,,Clear,300,2013-03-30 12:55:00
8:55 AM,20.7,19.2,94,30.10,10.0,WNW,8.1,-,N/A,,Clear,300,2013-03-30 13:55:00
9:55 AM,23.2,21.6,94,30.11,10.0,WNW,10.4,-,N/A,,Clear,300,2013-03-30 14:55:00
10:55 AM,26.1,24.3,93,30.10,10.0,WNW,11.5,-,N/A,,Partly Cloudy,290,2013-03-30 15:55:00
11:55 AM,30.4,25.9,83,30.10,10.0,WNW,10.4,-,N/A,,Mostly Cloudy,290,2013-03-30 16:55:00
12:55 PM,32.9,27.9,82,30.09,10.0,WNW,8.1,-,N/A,,Partly Cloudy,290,2013-03-30 17:55:00
1:55 PM,34.2,29.7,84,30.08,10.0,WNW,8.1,-,N/A,,Clear,300,2013-03-30 18:55:00
2:55 PM,35.4,30.2,81,30.07,10.0,WNW,16.1,-,N/A,,Mostly Cloudy,290,2013-03-30 19:55:00
3:44 PM,33.8,30.2,87,30.07,3.0,NW,11.5,-,N/A,Snow,Light Snow,310,2013-03-30 20:44:00
3:46 PM,33.8,30.2,87,30.07,3.0,NW,12.7,-,N/A,Snow,Light Snow,310,2013-03-30 20:46:00
3:55 PM,34.2,30.9,88,30.06,5.0,NW,9.2,-,0.00,Snow,Light Snow,320,2013-03-30 20:55:00
5:55 PM,36.3,32.4,86,30.02,10.0,West,12.7,-,N/A,,Clear,270,2013-03-30 22:55:00
6:55 PM,36.5,31.8,83,30.00,10.0,WNW,24.2,31.1,N/A,,Clear,290,2013-03-30 23:55:00
7:55 PM,34.7,29.8,82,30.01,10.0,WNW,24.2,-,N/A,,Clear,290,2013-03-31 00:55:00
8:55 PM,32.0,26.8,81,30.02,10.0,WNW,25.3,31.1,N/A,,Clear,300,2013-03-31 01:55:00
9:55 PM,30.9,26.1,82,30.03,10.0,WNW,29.9,36.8,N/A,,Clear,300,2013-03-31 02:55:00
10:55 PM,29.3,24.6,83,30.05,10.0,WNW,29.9,-,N/A,,Clear,300,2013-03-31 03:55:00
11:55 PM,28.4,23.4,81,30.05,10.0,NW,27.6,-,N/A,,Clear,310,2013-03-31 04:55:00